Location: Addison Town Hall
(32.9525°N, 96.8158°W)
Time: 00:10:16
(UTC+00:00)

Meteor 1-31 Rocket - Pass Details

Date: 08 March 2021
Orbit: 519 x 547 km, 97.7° (Epoch: 10 April)

Event Time Altitude Azimuth Distance (km) Brightness Sun altitude
Rises 12:14:47 0° 350° (N) 2,682 6.2 -7.4°
Reaches altitude 10° 12:17:33 10° 329° (NNW) 1,780 5.1 -6.8°
Maximum altitude 12:19:55 16° 290° (WNW) 1,436 4.4 -6.3°
Drops below altitude 10° 12:22:15 10° 252° (WSW) 1,764 4.8 -5.8°
Sets 12:24:59 0° 230° (SW) 2,642 5.8 -5.3°
